Terug naar catalogus

COSMOS 970 DEB

ActiefLEO
NORAD 64978·DEBRIS·🇷🇺 Russia

Gelanceerd Dec 21, 1977 vanaf Baikonur Cosmodrome

Loading…

Volgende Passages (komende 24 uur)

TLE

VerouderdSource: Space-Track

Epoch: Aug 24, 2026, 05:30 UTC

1 64978U 77121CP  26236.22923591  .00001234  00000-0  87977-3 0  9995
2 64978  65.6412 175.0306 0091507 247.6311 111.5047 13.99099900626460

Volg COSMOS 970 DEB in realtime met AllMySat

Download on the App Store